Wind_Speed
23 24 26 26 25 24 23 22 20 20 19 18 17 17 16 16 16 16 16 16 16 15 15 14 13 11 9 8 7 7 8 9 10 11 12 12 12 11 10 9 9 9 8 8 7 6 5 4 4 4 4 5 5 5 6 7 7 9 9 10 9 9 8 8 7 7 6 5 4 4 5 4 3 2 2 3 5 8 10 9 7 8 11 10 7
21 22 24 25 25 25 24 24 22 22 20 19 18 17 16 16 16 16 16 16 16 16 15 15 13 11 9 8 7 7 7 8 9 10 11 12 12 11 10 9 8 7 7 7 6 6 5 4 3 2 2 3 4 4 4 5 6 7 8 9 9 9 8 7 7 6 5 5 4 4 4 3 2 1 3 4 5 7 7 6 6 8 11 10 6
21 22 23 24 26 27 26 25 24 23 21 20 19 18 17 17 17 16 16 16 16 15 15 14 13 11 9 8 7 7 7 8 8 9 9 10 11 11 10 9 8 6 5 5 5 5 4 3 2 2 1 2 3 3 4 4 4 5 6 7 8 8 8 8 7 6 5 5 5 5 4 4 3 2 3 3 3 5 5 4 6 8 10 9 4
23 22 22 23 26 27 27 26 25 24 22 21 21 20 19 18 17 17 17 17 16 16 15 14 13 11 10 9 8 8 8 8 8 9 9 9 10 10 9 9 7 6 5 4 3 3 3 3 2 1 1 2 3 3 4 4 4 4 4 5 6 7 8 8 8 7 6 6 6 6 6 5 4 4 4 3 3 3 2 2 6 8 10 7 1
21 22 23 24 25 25 26 26 25 24 24 23 23 22 21 19 18 17 17 17 17 17 16 15 14 13 12 11 10 9 9 10 10 9 9 9 9 9 8 8 7 6 4 3 2 2 1 1 1 0 1 2 3 4 5 5 6 6 6 5 5 5 6 7 8 8 7 7 7 7 7 7 6 5 5 3 2 0 0 2 6 9 11 7 1
19 20 22 23 24 24 25 25 25 26 26 25 25 25 23 21 20 18 17 17 17 17 17 16 16 15 14 13 12 11 11 11 11 10 9 9 8 8 8 8 7 6 4 3 2 2 1 1 1 1 1 2 3 4 5 6 6 7 7 7 7 6 6 6 7 8 8 8 8 8 8 8 7 6 5 5 3 2 2 3 6 8 11 8 3
18 19 20 22 23 24 24 25 26 27 28 28 28 27 25 24 22 21 19 18 18 17 16 16 16 16 16 15 14 13 12 12 11 10 9 9 9 9 8 8 8 7 6 5 4 3 3 2 3 3 3 3 3 4 6 7 7 8 8 9 9 8 8 7 7 7 8 9 9 9 9 9 9 7 7 7 6 4 4 5 7 9 10 10 7
18 18 19 20 21 23 24 26 27 28 29 30 30 29 27 26 25 23 22 20 19 18 17 17 17 17 16 16 15 14 13 12 11 11 10 10 10 10 9 9 9 9 8 8 6 5 5 4 4 5 5 5 5 5 6 7 7 8 8 9 10 10 10 9 8 8 9 10 10 10 10 10 10 10 9 8 7 5 4 5 7 9 10 10 9
18 17 17 18 20 23 25 26 27 28 30 31 31 30 29 28 27 26 24 22 21 20 19 18 18 17 17 16 16 15 13 13 13 12 12 12 12 12 11 10 9 9 10 9 8 7 6 6 6 6 7 7 7 6 6 7 7 8 9 9 10 11 12 12 11 11 10 11 12 11 11 11 11 12 12 11 8 6 5 6 7 8 10 11 10
20 18 17 17 20 23 25 27 28 29 29 30 30 31 31 31 30 28 26 25 24 22 21 20 18 18 17 17 16 15 15 15 15 15 15 14 14 13 13 12 12 11 11 11 11 10 9 8 8 8 8 9 9 9 8 8 7 8 9 9 10 11 12 13 14 13 13 13 13 13 12 13 12 13 14 12 10 8 7 7 8 9 10 13 13
23 21 19 19 20 22 24 27 28 28 28 29 30 31 32 32 31 30 29 28 26 25 24 22 20 20 19 18 17 16 16 16 17 17 17 16 16 15 15 14 14 14 13 13 13 12 11 10 10 10 10 11 11 11 11 10 9 9 9 10 10 10 11 14 15 16 16 16 15 15 14 13 13 15 16 14 11 9 8 9 9 10 12 14 16
25 23 22 22 21 19 20 23 26 27 28 29 29 30 32 32 32 32 31 30 28 27 26 24 23 23 22 20 19 17 17 18 19 19 18 18 17 17 17 16 16 15 15 15 15 14 14 13 12 12 12 12 12 12 12 12 11 10 10 10 10 11 12 13 15 16 18 18 18 18 17 15 15 17 17 15 13 12 11 10 11 12 14 16 17
29 26 25 22 18 14 13 15 21 25 27 28 29 30 31 31 31 31 31 31 30 29 28 27 26 25 24 23 21 20 19 19 19 19 19 19 18 18 18 18 17 17 17 17 16 16 16 15 14 14 14 14 14 14 14 14 13 12 12 11 11 11 13 14 15 16 18 20 21 22 20 18 18 19 18 15 15 15 14 13 13 14 16 17 18
30 27 24 19 15 14 13 13 17 24 28 29 30 30 29 29 30 30 31 31 31 29 28 28 27 26 26 25 25 23 22 21 21 20 20 20 19 19 19 20 19 19 18 18 18 18 18 18 17 17 16 16 16 16 15 15 14 14 14 13 12 12 13 15 16 16 17 19 22 25 24 21 21 22 20 17 17 18 17 16 15 16 18 19 20
29 27 23 19 17 18 18 16 17 22 27 30 29 28 28 29 29 29 29 29 29 29 29 28 28 27 27 27 27 26 24 24 23 22 21 20 20 20 20 21 21 21 20 20 20 20 20 20 19 19 18 18 18 18 17 16 15 15 15 15 14 14 14 16 17 18 17 18 21 26 27 25 24 24 22 20 20 20 19 18 18 18 19 20 21
30 27 24 21 20 20 21 20 18 20 25 29 29 27 28 29 29 29 29 28 28 29 29 28 27 27 27 27 27 26 26 26 25 24 23 22 21 20 20 20 21 21 21 22 22 22 22 21 21 21 21 20 20 19 18 17 16 17 17 16 16 16 16 17 19 19 19 18 20 23 26 27 27 27 25 23 22 22 21 21 20 20 21 21 22
31 28 25 24 23 23 24 23 21 20 23 27 28 29 29 30 30 30 30 28 28 27 27 27 27 27 27 27 27 26 27 27 27 26 26 25 24 22 20 20 21 21 22 23 23 24 24 23 23 23 23 23 23 21 19 17 17 18 18 18 17 16 17 19 20 20 21 21 20 21 24 26 28 28 27 25 24 24 23 23 23 23 23 23 23
31 28 27 27 27 28 28 27 25 22 23 26 29 31 31 31 31 31 30 29 28 28 28 28 28 28 27 26 26 26 27 27 28 28 28 28 27 25 23 22 21 21 22 22 23 24 25 25 25 24 25 25 25 23 20 18 17 18 19 19 18 18 19 20 21 21 22 22 22 22 23 25 27 28 28 27 26 25 24 24 25 25 26 26 25
32 30 29 30 31 32 32 31 28 25 24 26 29 32 33 32 32 31 31 30 30 29 29 28 28 27 26 25 25 26 26 27 28 28 29 29 28 27 25 24 23 22 22 22 23 25 26 27 27 26 27 27 27 25 22 18 18 19 19 19 19 20 22 22 22 23 24 23 23 23 24 25 25 26 27 26 25 24 23 23 24 26 27 28 28
35 33 33 33 33 33 34 33 29 27 25 27 29 31 32 33 32 32 31 31 31 30 29 28 27 26 26 26 25 25 25 26 26 27 28 28 28 27 26 25 24 24 24 24 24 25 27 28 28 28 28 28 28 27 23 20 20 20 20 19 20 23 24 23 23 23 24 24 25 25 25 25 25 25 25 24 22 22 22 22 23 25 26 27 28
36 36 35 35 33 33 35 35 31 29 28 29 30 31 31 31 32 31 32 32 32 31 30 28 28 27 27 27 26 26 26 25 26 27 27 26 26 26 26 25 24 25 26 25 25 25 27 29 29 30 30 29 29 28 25 22 21 20 20 21 23 25 25 23 23 24 25 26 27 27 27 26 26 25 24 22 21 22 22 22 23 25 26 27 26
34 34 35 34 33 32 34 36 35 32 32 32 32 30 30 30 30 31 31 31 31 31 30 29 28 28 28 28 27 27 27 27 26 27 26 26 26 25 24 24 25 26 27 26 25 25 27 29 30 31 31 31 30 29 26 24 23 21 21 23 25 25 25 24 24 26 27 28 29 28 28 28 27 26 24 22 22 23 23 24 26 27 29 29 29
33 33 33 33 31 29 31 34 35 35 35 35 33 32 32 31 30 30 30 30 30 30 29 28 28 28 28 27 27 27 28 28 28 28 28 27 26 25 24 24 26 27 27 26 25 26 28 30 31 32 32 31 31 30 28 26 24 22 23 25 25 26 26 25 26 27 28 29 30 30 30 29 28 27 26 25 25 25 26 28 29 30 31 32 33
36 34 33 32 29 28 29 32 34 36 37 36 35 35 34 33 32 31 30 30 29 29 28 27 27 26 26 26 26 26 27 28 28 29 29 29 28 27 26 26 27 28 28 27 26 27 29 30 31 32 33 33 32 31 29 27 25 24 25 26 26 26 26 27 28 28 29 29 29 30 30 29 28 28 28 28 28 28 30 31 31 32 33 35 37
39 36 35 33 30 29 30 32 34 37 38 37 36 35 35 35 34 33 31 31 30 29 29 28 27 26 26 25 25 25 26 27 28 29 30 30 29 29 28 28 29 30 29 27 27 28 29 30 31 33 33 34 33 32 29 28 27 27 27 28 27 27 28 29 29 29 29 29 29 29 29 29 29 29 30 31 30 31 31 32 32 33 35 37 40
41 39 37 35 32 31 31 33 34 36 37 36 35 35 35 36 35 34 33 32 31 30 30 29 28 27 26 25 25 26 27 27 28 29 30 31 31 30 30 29 30 31 30 29 29 29 29 30 31 33 34 34 34 32 30 30 29 29 29 29 29 29 30 31 31 30 29 29 28 28 28 28 28 29 31 32 32 32 33 33 33 34 36 39 42
42 41 39 37 35 34 33 33 33 34 35 35 35 36 37 37 36 36 35 33 32 31 31 30 29 27 25 25 26 27 28 28 28 28 30 31 31 31 31 31 31 32 32 31 30 30 31 32 33 34 34 34 33 32 31 31 31 30 31 31 31 31 31 32 31 30 29 29 28 28 29 28 28 29 30 31 32 33 34 34 35 36 38 40 40
43 43 42 40 39 37 35 34 33 33 34 34 35 36 37 38 37 37 36 34 33 33 32 31 29 28 27 27 29 29 29 29 28 29 30 31 32 33 34 34 33 33 32 32 32 32 33 33 34 34 34 33 33 33 32 32 31 32 32 32 32 31 31 31 30 30 30 29 29 29 28 28 28 29 30 31 32 33 34 35 36 37 38 38 37
45 45 44 43 42 41 39 37 36 35 35 35 35 36 37 38 38 38 37 37 35 34 33 32 30 30 30 31 32 32 30 29 29 31 32 33 34 36 36 36 35 34 33 34 34 33 33 33 33 33 34 34 33 33 32 32 32 32 32 32 33 32 31 30 30 31 31 30 30 29 29 28 28 29 30 30 31 32 33 34 35 36 37 37 36
47 47 47 46 46 44 43 42 40 39 38 37 36 36 36 37 38 38 38 37 36 34 33 33 33 33 34 34 33 32 30 30 32 35 36 36 37 38 37 37 37 35 34 34 34 32 31 32 33 33 34 33 33 33 33 33 33 32 33 34 33 33 31 30 29 29 29 29 29 28 27 27 27 28 28 28 29 31 32 33 34 35 35 35 35
48 49 49 49 49 48 47 46 45 43 42 41 40 38 37 36 37 38 38 37 37 35 34 34 35 36 36 35 34 33 32 31 34 36 37 38 38 38 37 37 37 36 35 34 33 32 32 32 33 33 33 33 33 33 34 34 33 33 33 34 33 31 30 28 26 24 25 26 27 26 24 24 26 27 27 28 29 31 32 33 34 34 35 35 36
49 50 50 51 51 51 50 50 49 48 47 46 45 42 40 38 38 37 37 37 37 36 35 36 38 38 37 36 35 34 33 33 35 36 38 39 39 38 37 37 38 37 36 33 32 32 32 32 32 32 33 33 34 34 35 35 34 34 34 34 33 32 30 26 25 26 27 29 29 27 25 26 26 26 27 29 31 32 33 34 34 35 35 36 37
48 50 50 51 51 51 52 52 52 52 52 50 47 44 42 40 38 37 36 36 36 35 35 36 38 38 37 37 37 36 34 34 35 37 38 39 40 39 39 39 39 38 35 32 31 31 31 31 32 33 34 35 35 36 36 36 36 36 36 34 31 30 28 26 26 29 31 33 34 33 32 33 34 31 28 29 31 32 34 35 35 36 35 35 34
46 48 49 50 51 51 52 53 54 54 53 51 49 46 44 42 40 38 38 37 36 35 35 36 38 38 38 38 38 37 35 35 36 38 39 40 40 40 40 40 39 36 33 31 31 30 30 31 32 34 35 36 36 36 37 38 38 38 36 33 31 31 28 26 28 32 34 35 36 35 35 36 36 33 29 28 30 33 34 35 35 35 34 33 33
44 46 48 49 50 51 52 53 54 55 55 54 51 48 46 44 43 42 41 40 39 38 37 37 38 38 39 40 40 38 37 37 38 39 39 39 40 41 41 39 37 35 33 32 30 29 30 32 32 33 35 36 37 38 40 39 38 38 35 32 32 34 31 27 29 33 35 35 36 36 35 34 32 32 33 33 34 35 36 36 36 36 35 35 35
45 46 47 48 50 51 52 53 54 54 55 55 53 50 48 47 46 45 45 45 45 43 40 39 40 41 41 41 41 40 39 39 40 39 39 39 40 40 40 38 37 36 34 32 31 31 31 31 32 34 37 39 40 40 40 38 37 38 35 30 29 32 32 31 32 34 35 35 36 37 37 35 34 34 36 37 37 36 37 37 38 38 38 37 37
48 47 47 49 50 51 52 54 55 55 54 54 52 50 49 48 48 48 49 50 50 47 44 43 44 45 43 42 42 41 41 41 41 40 39 39 39 40 39 38 37 37 35 34 35 35 33 31 32 35 39 41 40 38 37 36 36 36 35 31 29 31 34 36 37 37 37 38 39 40 40 39 38 37 37 37 37 38 38 38 38 39 39 39 39
51 49 48 49 50 52 54 56 55 54 52 52 52 51 50 50 50 50 51 53 53 52 50 49 48 47 45 44 44 43 43 44 43 41 40 40 39 39 39 38 37 38 37 35 35 36 34 33 34 36 40 41 39 36 36 38 38 37 36 35 35 36 37 39 41 42 41 41 41 42 42 41 40 40 39 39 40 40 39 39 38 39 39 39 40
53 52 51 51 52 54 55 54 52 50 49 50 51 52 52 52 51 49 50 53 56 56 55 52 50 47 47 48 49 49 48 46 44 42 40 40 40 40 39 37 38 40 38 35 34 35 36 36 37 39 40 41 40 37 38 39 39 39 39 40 41 42 42 42 43 43 43 43 43 43 43 42 41 41 42 41 41 42 41 40 39 39 39 40 41
54 53 52 53 55 55 53 51 49 48 46 45 46 50 53 54 53 51 50 52 55 58 59 56 52 48 48 50 52 53 52 49 46 43 41 40 39 39 38 38 38 39 39 37 36 36 36 37 39 40 41 41 40 39 40 41 40 41 42 44 45 46 47 46 46 45 45 45 45 45 44 43 41 41 42 42 42 42 41 40 40 41 42 42 43
54 54 53 53 55 55 53 51 49 48 46 43 42 45 49 52 53 53 52 52 54 57 59 58 55 51 51 52 54 54 52 50 47 44 42 40 39 39 38 37 37 38 38 38 37 35 33 33 36 39 40 41 42 42 43 43 44 44 46 46 47 48 49 50 50 49 48 47 46 46 46 44 43 43 44 44 44 43 43 43 43 44 44 45 46
54 53 53 54 56 56 54 51 49 49 49 47 43 42 45 48 51 52 52 51 52 55 57 57 55 53 53 55 57 56 54 52 49 45 40 38 38 38 37 36 36 36 37 38 38 37 34 33 35 37 39 41 42 43 44 45 46 47 47 48 49 49 50 51 51 51 49 48 47 47 47 46 46 46 46 46 45 44 44 45 45 45 46 47 48
56 55 54 54 56 57 56 54 52 51 50 49 46 45 45 47 49 51 51 51 51 53 54 54 54 54 55 58 60 59 57 54 49 44 40 38 37 37 35 35 35 35 36 37 38 39 38 38 38 39 41 42 43 44 45 46 47 48 49 49 49 49 49 51 52 52 51 50 48 48 47 47 47 46 46 46 46 46 46 46 47 48 49 50 51
57 57 58 57 58 58 57 55 54 53 53 51 48 46 47 49 48 47 47 48 50 52 53 54 55 56 59 62 62 60 57 53 47 42 39 38 37 36 35 35 35 36 37 38 39 40 41 42 42 43 44 45 46 47 48 48 49 50 49 48 48 48 50 52 53 53 52 52 50 48 47 47 46 46 46 46 47 47 48 48 49 51 52 53 53
55 56 59 60 59 59 59 57 56 55 54 52 49 47 48 49 48 46 46 47 49 51 54 56 57 59 63 65 63 60 57 52 48 45 42 41 40 38 37 36 37 37 38 40 41 42 43 44 45 46 46 47 47 48 48 48 49 49 49 48 49 50 52 53 53 52 50 50 50 49 47 47 47 47 47 47 48 49 50 51 52 53 54 55 55
55 54 56 59 60 58 58 58 58 56 55 53 50 49 49 48 46 46 47 48 49 53 57 57 58 61 64 64 62 59 55 51 48 47 46 44 42 40 38 37 37 37 39 40 41 43 44 45 46 47 47 48 48 49 49 49 49 50 50 50 51 52 52 51 51 51 50 50 50 50 49 48 48 49 49 49 50 51 52 53 53 55 56 57 57
54 51 51 54 56 56 57 59 58 57 57 55 51 48 48 48 47 48 50 50 50 53 57 59 60 63 65 64 62 60 56 52 49 48 46 45 43 40 38 38 38 39 40 42 43 44 46 47 47 48 49 50 51 51 51 52 52 52 51 51 52 52 51 50 49 49 49 49 49 49 49 49 50 50 51 52 52 53 54 55 56 57 58 59 60
51 49 48 48 47 47 50 57 59 57 55 54 51 48 47 45 41 41 46 51 50 50 53 55 57 59 60 61 61 59 54 49 48 46 45 44 43 41 39 39 41 42 44 45 46 47 47 48 48 49 51 52 53 54 54 54 53 52 51 50 50 51 51 49 48 47 46 47 48 49 50 51 52 52 53 54 55 56 57 58 59 60 61 62 63
46 46 47 49 49 45 43 48 56 59 57 53 48 45 47 47 42 38 38 42 45 46 48 50 52 55 57 57 55 52 49 47 45 45 43 42 42 41 41 42 44 45 46 47 48 48 49 49 50 51 51 52 53 54 54 53 53 52 51 50 49 50 50 50 48 47 47 48 50 51 52 54 55 56 57 58 59 60 61 62 63 64 66 67 68
51 49 46 46 49 49 45 40 43 49 55 55 51 47 46 46 44 41 37 37 39 43 47 49 50 51 55 56 53 50 48 47 45 44 44 43 43 43 44 45 46 47 48 49 50 50 50 51 51 51 52 53 53 54 54 55 54 52 51 50 49 50 51 50 50 49 50 52 54 55 57 58 59 60 61 62 64 65 66 67 68 69 71 72 73
54 57 54 48 46 48 47 40 33 32 36 42 46 50 52 50 47 43 39 36 33 34 40 48 49 48 48 52 52 49 47 46 46 46 46 46 46 47 48 48 49 49 50 50 51 52 52 52 52 53 54 56 56 57 57 56 53 50 49 50 50 50 51 52 52 53 54 56 58 60 61 62 63 65 66 67 68 69 71 72 73 74 75 76 77
Wind_Direction
211 210 209 208 207 209 211 211 208 206 203 196 195 198 199 198 200 201 202 203 206 209 211 212 210 206 203 200 195 185 173 165 161 155 149 145 143 138 130 123 117 111 105 101 97 94 94 95 98 108 118 125 130 137 144 150 153 153 153 154 156 156 156 153 151 150 151 153 155 158 164 170 184 214 312 5 40 48 47 40 17 346 350 357 346
209 209 212 212 210 210 212 213 211 208 205 201 199 200 200 201 201 201 205 209 211 214 217 218 216 212 210 211 207 198 186 176 170 164 157 152 150 146 140 132 124 116 109 103 100 97 99 102 106 115 128 137 143 150 154 158 161 160 159 159 160 162 165 166 166 167 169 172 177 187 193 197 209 254 313 349 35 52 51 32 355 332 342 352 343
204 204 207 211 213 212 213 214 214 210 207 205 203 203 203 203 202 200 204 210 214 218 222 224 224 221 217 219 218 210 200 190 182 175 167 162 158 155 150 144 135 126 116 107 102 98 99 104 113 131 155 177 175 174 177 180 182 177 171 168 167 168 171 176 180 183 188 193 199 210 221 228 236 261 293 323 23 49 51 11 328 325 344 351 337
199 199 201 206 212 214 214 215 215 213 210 208 208 207 207 206 204 203 204 206 211 217 222 226 228 229 226 224 223 218 212 206 198 189 181 174 169 165 162 156 149 141 131 118 108 97 93 96 104 133 184 216 219 214 206 201 204 206 201 192 183 179 177 180 187 194 203 213 217 222 231 241 248 260 273 299 2 32 51 343 311 326 352 0 319
198 198 198 202 208 212 214 215 216 216 214 211 211 211 211 209 207 207 207 207 209 214 218 221 225 228 229 226 223 221 219 216 211 203 196 189 181 177 175 171 166 160 153 145 138 123 97 73 60 70 219 236 241 242 236 224 217 215 219 221 215 207 197 190 194 203 212 222 229 232 237 241 245 254 267 291 331 355 169 329 319 333 358 10 282
200 201 201 202 205 209 212 214 214 216 216 214 213 213 213 211 209 208 208 209 212 214 218 221 223 226 229 230 228 226 224 223 221 214 208 203 197 189 186 185 185 185 182 181 182 183 197 268 313 322 303 269 257 252 250 246 239 229 224 226 230 231 228 216 211 214 221 228 234 240 243 246 246 249 260 274 279 239 232 314 328 336 354 3 324
201 202 204 204 204 206 210 212 212 213 215 216 216 214 214 213 211 209 208 209 211 214 218 222 225 226 228 230 232 231 230 230 230 225 218 216 214 208 202 197 197 200 206 211 217 221 231 249 274 292 298 289 277 265 257 253 250 245 237 232 232 234 237 238 233 231 232 236 241 245 248 253 255 255 256 261 263 255 262 300 321 330 341 351 343
200 201 203 204 205 205 209 211 211 211 212 215 216 215 215 215 214 212 210 209 211 213 215 219 224 227 227 228 231 233 234 235 234 232 226 223 224 224 221 214 209 209 213 218 222 228 238 247 259 274 285 287 284 275 267 262 257 253 246 240 238 237 236 237 237 238 239 242 246 248 251 255 258 260 260 257 255 257 272 295 310 316 323 335 338
199 197 198 202 205 206 208 210 212 213 213 214 215 215 216 216 216 215 213 211 212 214 215 218 222 227 229 230 230 231 233 235 234 233 231 229 229 230 232 229 225 222 222 225 228 232 238 245 252 261 272 280 284 282 276 271 266 263 257 248 242 240 238 237 235 235 238 241 245 248 250 253 256 259 260 257 255 257 267 278 287 297 306 313 318
202 199 197 202 207 208 208 210 212 214 215 215 215 215 216 216 217 217 215 214 214 216 218 219 222 226 231 232 232 230 230 231 232 232 231 231 232 233 236 236 234 232 231 231 234 238 240 244 249 255 263 270 277 283 285 282 275 269 265 259 250 243 240 239 237 237 237 240 244 247 249 253 254 257 260 260 258 259 267 274 277 284 293 298 299
205 202 201 206 209 209 210 211 212 213 215 216 215 215 215 216 217 217 216 216 216 217 219 221 223 227 230 232 233 231 229 229 230 231 231 231 232 234 236 237 235 234 235 235 236 239 242 245 248 253 258 263 270 278 284 286 285 278 270 265 260 251 244 240 238 238 237 241 245 247 249 253 254 256 261 265 266 265 266 270 274 280 285 290 293
207 205 205 208 207 208 211 214 215 215 214 215 216 216 216 216 217 217 217 217 218 218 219 221 223 226 229 232 233 232 231 231 231 232 232 231 232 233 236 238 237 235 235 236 238 240 243 246 248 251 255 259 264 271 277 283 286 285 278 272 266 260 251 244 240 237 235 238 243 246 248 251 254 256 259 264 267 269 269 270 273 277 281 283 285
206 207 209 209 207 208 216 223 225 222 219 217 216 217 217 217 218 218 219 219 219 219 219 221 224 227 229 232 233 232 232 232 233 233 233 232 232 232 234 236 238 238 238 238 239 240 243 245 247 251 256 259 261 264 269 276 283 287 285 278 270 262 256 252 247 239 233 232 237 243 246 247 253 258 260 260 262 266 270 272 273 274 278 279 281
206 208 210 209 208 213 220 227 230 227 223 220 219 218 217 216 217 219 220 221 221 220 220 221 223 227 229 231 232 233 232 233 235 235 234 234 232 231 232 235 237 239 240 241 242 241 241 242 244 248 254 259 262 262 263 267 273 282 287 284 276 266 259 256 253 247 238 231 232 238 242 243 248 257 261 259 261 265 270 274 276 276 276 278 281
209 210 210 207 208 215 218 218 222 225 224 221 219 217 216 215 215 217 219 221 220 220 221 221 222 225 227 229 231 232 233 234 236 236 236 236 234 232 232 234 236 238 240 241 244 244 242 241 242 245 248 253 259 263 264 265 266 273 281 284 281 275 265 258 256 254 248 238 232 235 238 238 242 251 257 258 261 266 270 274 277 278 278 279 282
210 210 209 206 206 212 217 214 214 221 224 221 216 214 214 214 213 214 215 217 217 218 219 219 220 222 226 229 230 230 232 234 236 237 238 238 238 235 234 234 237 239 240 241 243 246 246 244 243 244 246 249 253 257 261 264 266 270 275 279 280 279 270 261 257 256 254 247 240 237 237 237 239 244 250 254 259 264 269 273 277 280 281 282 284
211 209 208 208 209 211 216 216 212 216 222 220 215 213 212 213 214 213 212 213 214 215 215 215 215 217 221 226 228 228 230 232 235 237 238 240 240 239 236 236 236 238 241 243 245 246 248 247 245 244 245 248 252 256 258 259 261 265 269 274 278 278 270 263 259 256 254 252 249 244 241 240 240 241 244 249 255 261 266 272 277 280 281 283 286
212 210 211 214 215 215 216 215 211 211 216 217 214 213 213 214 215 215 213 213 213 214 214 214 214 215 217 221 226 228 229 230 232 234 236 239 241 241 239 238 237 237 240 243 246 248 248 247 246 245 244 246 250 255 258 258 258 259 262 267 273 274 268 263 259 256 255 255 253 251 248 246 244 243 243 246 251 258 263 269 274 278 280 282 285
211 211 215 218 219 219 218 214 210 208 212 214 213 213 213 214 216 217 216 216 216 216 218 218 216 216 216 218 223 227 230 231 233 234 236 238 241 242 241 240 238 237 238 240 243 246 248 249 247 245 244 245 248 251 253 254 255 256 258 261 267 268 264 262 261 259 256 256 255 254 253 252 250 248 246 248 253 258 263 268 272 276 279 280 282
210 210 216 219 219 218 213 209 207 207 210 214 214 213 213 214 216 219 220 220 220 220 221 221 220 219 217 218 221 226 229 232 234 235 236 238 240 241 242 241 239 237 237 237 239 244 247 249 249 247 244 245 247 248 249 249 250 252 255 258 261 262 261 263 264 261 257 255 255 255 256 256 255 253 253 256 261 266 270 273 275 277 278 280 283
211 211 214 216 215 213 210 209 210 210 210 214 215 214 213 214 215 217 220 222 223 222 223 223 223 223 221 219 220 223 227 232 235 237 238 238 239 240 241 241 240 239 238 237 237 241 246 248 248 247 246 246 247 247 246 246 247 249 251 254 257 260 262 263 262 260 258 255 254 255 257 258 258 257 260 264 269 271 273 274 275 276 278 281 285
211 213 216 216 214 213 212 212 212 211 211 214 216 216 215 214 215 215 218 221 223 223 224 224 225 226 226 224 222 222 225 229 233 238 241 241 241 240 240 240 241 241 240 238 236 237 241 244 245 246 246 247 248 247 246 246 248 248 247 249 253 258 261 262 260 259 258 256 255 256 258 260 262 264 267 270 272 272 273 274 274 275 278 283 287
209 214 220 221 218 215 210 206 206 211 214 215 215 217 217 216 216 216 218 220 223 224 224 225 227 228 229 229 227 226 226 227 231 235 240 243 244 243 241 240 241 242 242 239 235 234 237 240 241 244 246 247 248 248 246 247 249 248 247 248 250 254 258 261 260 259 258 258 258 258 259 262 267 269 270 270 269 270 272 274 275 278 282 285 287
207 212 219 222 219 214 209 207 210 216 219 216 215 217 219 219 219 220 220 221 223 224 224 225 227 229 231 232 231 231 230 230 230 233 236 240 243 245 244 245 245 245 243 241 237 235 235 237 239 241 244 246 247 247 247 248 248 247 247 249 250 251 255 258 260 260 260 261 261 261 263 265 268 268 268 268 269 270 272 275 278 282 285 286 287
205 208 214 220 219 214 212 213 215 218 219 219 218 219 222 223 223 222 223 223 225 226 225 225 226 228 231 233 234 235 236 234 233 234 235 237 238 241 243 245 247 249 247 244 240 237 237 237 239 241 243 244 246 247 247 248 247 247 248 250 251 251 252 254 257 259 261 262 264 265 266 266 266 266 266 267 270 273 276 279 282 284 286 287 288
205 205 209 215 218 216 216 216 216 217 219 221 222 223 225 226 226 225 225 225 226 227 227 227 227 228 230 233 235 238 239 239 238 237 237 238 238 239 241 243 245 248 248 245 242 240 240 240 240 241 243 245 246 248 248 248 248 248 249 251 251 251 251 253 255 258 262 264 266 267 267 266 266 266 266 268 271 275 279 282 284 286 287 287 288
205 204 205 209 214 216 218 219 220 220 221 222 224 227 229 229 229 229 228 227 228 229 229 228 227 227 229 231 235 238 240 241 241 239 239 240 240 240 241 242 244 246 247 245 243 241 240 240 240 242 244 246 248 250 251 252 253 253 254 254 254 254 253 254 256 259 262 265 266 266 267 269 269 269 269 270 272 275 278 281 282 282 283 284 288
206 204 204 207 211 214 216 219 222 224 224 224 225 227 229 231 231 232 232 231 230 230 230 230 228 227 226 228 231 235 238 240 242 242 241 240 240 240 242 243 245 246 245 243 240 238 238 239 241 244 246 247 249 251 253 256 258 259 259 260 260 258 256 256 258 260 262 263 264 265 267 267 268 268 268 269 272 274 276 277 279 280 281 284 289
209 207 206 208 211 213 214 215 219 222 225 226 226 226 228 230 230 231 233 234 233 232 231 231 229 226 226 227 230 233 236 239 241 242 240 239 238 240 242 244 246 246 245 242 240 238 238 239 242 244 246 248 250 253 256 258 260 261 263 263 262 262 261 260 259 259 259 260 262 263 263 264 264 266 267 269 271 273 275 278 283 287 287 287 288
212 211 210 209 211 213 214 214 216 219 221 224 226 226 226 227 229 230 231 233 234 233 232 231 230 228 227 228 230 233 235 237 239 240 240 240 239 240 243 246 248 249 246 243 242 240 239 240 241 243 246 249 252 255 257 259 260 261 262 263 263 263 263 260 257 257 258 258 257 258 260 264 266 268 270 271 272 274 278 284 289 291 290 289 289
215 214 213 212 212 214 215 215 216 217 219 221 224 225 225 226 227 227 228 230 233 234 232 231 231 231 230 230 231 233 235 237 240 242 243 244 245 246 247 248 250 250 247 243 241 240 239 240 241 244 247 250 253 256 258 259 260 261 261 261 261 260 258 256 256 260 262 261 259 260 264 268 270 271 271 272 275 279 283 288 291 291 291 291 291
218 217 217 216 215 215 216 217 217 218 219 220 221 222 224 226 226 226 226 229 232 234 233 232 233 233 232 232 233 233 235 238 241 243 245 246 247 248 249 250 250 249 247 243 240 239 239 240 242 245 248 251 254 256 257 258 259 259 258 258 258 257 258 262 267 270 270 269 268 270 272 273 273 274 275 276 278 282 286 289 291 292 292 292 290
219 219 220 220 219 219 219 220 220 220 221 222 222 222 224 226 228 228 228 230 232 234 234 235 236 236 235 235 235 235 236 238 241 243 244 246 247 248 249 249 249 249 248 244 241 239 239 240 242 245 248 251 252 254 256 257 257 254 252 254 258 261 263 268 271 271 270 271 273 274 276 275 272 270 273 279 282 285 288 290 290 291 291 290 289
221 221 222 223 223 223 224 224 224 224 224 224 223 223 224 226 228 230 231 232 234 236 237 237 238 238 238 237 237 236 237 239 241 243 245 246 247 248 249 249 250 250 249 245 241 239 237 239 241 245 248 251 252 254 255 254 253 252 252 258 267 272 274 276 277 275 275 277 280 283 285 284 275 265 266 279 287 287 288 290 290 290 289 286 284
224 223 223 224 225 226 227 227 227 227 226 225 224 223 223 225 225 227 229 232 234 236 238 238 238 239 239 239 238 237 237 239 242 244 245 246 246 248 250 250 251 250 247 243 239 235 234 236 239 244 248 250 250 250 250 250 252 256 259 263 269 275 281 286 285 284 285 287 290 292 293 291 282 271 270 280 287 287 287 289 290 289 287 284 283
226 224 224 226 227 228 229 230 229 229 228 227 226 224 224 225 225 225 227 230 232 234 235 235 236 237 238 238 237 235 235 238 241 244 245 245 246 248 249 250 249 248 244 240 235 229 229 233 238 244 248 249 248 248 251 254 260 265 267 267 269 275 282 285 284 284 286 289 293 295 294 293 289 284 282 284 285 285 286 289 290 289 286 284 284
227 226 226 227 229 230 231 232 231 231 231 231 230 228 226 225 225 226 228 229 231 233 233 232 234 236 236 236 236 234 233 236 240 242 243 244 245 247 248 248 248 246 242 238 234 230 228 230 237 244 248 249 249 252 258 262 266 271 274 275 275 275 279 282 283 283 285 288 291 293 293 292 290 288 287 285 282 282 284 287 288 287 285 284 286
226 227 227 229 230 231 232 232 233 233 233 231 231 233 232 230 227 227 228 229 229 231 233 234 235 237 238 238 236 233 231 234 238 240 241 243 244 246 246 245 246 245 241 238 239 240 238 237 242 249 253 254 255 258 261 263 267 272 276 277 276 274 274 276 279 282 285 288 290 290 288 288 287 286 286 284 282 282 284 286 287 285 284 285 287
226 227 228 230 232 233 235 237 240 242 239 232 229 229 231 233 233 232 231 230 230 231 233 235 237 241 244 243 240 235 231 231 234 237 239 241 242 243 244 243 243 244 243 242 243 245 244 243 245 249 254 259 261 262 261 262 265 269 271 272 274 275 276 277 279 281 284 287 287 286 285 285 285 284 284 283 282 284 285 286 286 285 285 286 286
226 227 229 232 235 236 237 238 242 246 245 241 236 231 228 229 232 234 234 233 232 232 233 236 238 241 244 246 244 239 233 230 230 232 235 238 241 241 241 241 242 245 248 249 248 246 244 245 247 249 253 257 259 260 260 262 263 265 267 269 272 276 280 281 281 281 283 284 284 284 283 283 283 284 283 283 285 286 286 286 286 285 285 285 285
228 229 230 233 237 240 241 240 240 242 243 244 243 240 234 230 230 231 233 233 233 232 234 235 237 239 240 242 243 240 233 228 227 227 230 234 237 237 237 239 241 244 249 253 255 254 251 248 248 249 251 253 255 256 258 260 262 264 266 269 271 275 279 281 283 283 284 284 284 284 284 284 284 285 285 285 286 286 286 285 285 284 284 284 285
230 231 234 236 239 241 243 242 241 240 240 240 240 238 237 235 234 233 233 233 232 233 233 234 236 237 237 237 238 237 233 229 226 224 225 229 232 234 236 237 240 243 247 251 256 260 259 256 253 252 252 254 255 257 258 260 263 265 267 270 273 276 278 280 282 283 284 284 284 284 285 285 285 285 286 286 286 286 286 285 285 284 285 286 287
233 233 235 238 241 242 243 243 242 241 241 241 239 236 235 235 236 235 234 233 233 233 233 235 236 236 236 237 237 237 236 234 229 224 223 227 230 232 235 236 239 242 245 247 251 255 258 259 258 257 257 258 259 261 262 264 266 268 270 272 275 278 279 280 281 282 282 283 284 284 284 284 284 284 284 285 285 285 285 285 286 286 287 288 288
236 235 235 237 240 243 244 244 243 243 242 242 240 237 236 236 237 236 235 234 233 233 233 234 234 234 237 239 239 235 235 236 231 223 222 225 228 230 233 236 238 241 244 246 249 252 255 257 259 259 260 261 262 263 265 266 268 271 273 275 277 278 279 280 281 281 282 283 283 283 283 282 283 283 283 283 283 283 283 284 285 286 287 287 288
237 236 235 235 237 241 244 245 246 246 246 245 241 238 238 240 241 242 240 237 234 233 233 232 230 231 236 240 239 235 234 234 228 221 220 223 224 226 230 234 237 241 244 246 249 252 254 256 258 260 261 262 263 265 266 267 269 271 274 276 277 278 278 278 279 280 280 280 280 281 281 281 281 281 281 281 281 282 282 283 284 285 286 287 288
240 239 239 239 238 238 240 243 245 247 248 247 244 240 240 243 248 250 246 240 236 235 234 232 229 230 236 240 241 237 233 228 223 221 222 223 224 226 230 234 237 241 244 247 249 252 254 256 258 260 261 263 264 265 266 267 268 270 272 274 275 275 275 276 277 278 279 279 280 281 282 282 282 282 282 282 283 283 284 284 285 285 286 288 289
244 243 244 245 244 241 239 240 243 246 247 247 246 243 241 246 253 254 247 242 239 236 233 231 230 232 235 239 240 238 231 225 222 225 226 226 227 230 232 235 238 242 245 247 250 252 254 256 258 260 262 263 264 264 265 266 267 268 269 271 272 272 273 275 275 276 277 279 280 282 283 283 283 283 284 284 284 285 285 286 287 288 289 290 291
246 246 245 244 244 244 240 237 239 243 246 246 246 245 243 246 254 255 246 240 237 235 232 231 232 233 233 234 235 234 230 226 226 228 229 228 229 231 234 237 240 243 246 248 251 253 255 257 258 259 261 262 263 263 264 265 265 265 266 267 268 269 271 272 272 273 276 280 282 283 284 284 284 285 285 285 286 286 287 288 290 291 291 291 291
242 243 241 239 240 243 243 240 239 241 244 246 246 246 244 245 253 258 251 241 236 234 233 233 233 233 233 234 232 229 226 225 227 228 230 231 231 233 236 239 242 245 247 249 251 253 255 256 257 259 260 261 263 264 264 264 265 265 265 266 267 268 269 270 270 273 278 283 285 286 287 288 287 287 287 288 288 289 289 290 290 290 290 290 290
236 233 232 235 238 240 242 243 242 243 245 246 245 244 244 246 252 257 256 248 241 237 235 233 232 232 231 229 226 222 221 224 227 230 232 233 234 235 238 241 243 245 247 249 251 253 255 256 258 260 261 263 265 265 264 264 266 265 262 261 265 269 270 269 270 274 281 286 288 290 290 290 290 289 289 289 289 289 289 289 289 289 290 290 290
235 233 233 239 242 239 235 233 232 236 241 244 242 241 244 249 253 254 253 251 251 249 242 237 233 230 225 220 217 217 221 226 229 231 232 232 232 234 237 240 242 244 247 249 251 254 256 258 260 262 264 265 267 267 264 264 266 265 260 260 266 271 271 271 272 277 282 286 288 290 290 290 290 290 290 289 289 289 289 289 289 289 290 290 290
Height
5922 5924 5926 5928 5930 5932 5934 5936 5937 5938 5939 5941 5942 5943 5944 5946 5947 5948 5949 5950 5950 5951 5952 5953 5954 5956 5957 5958 5959 5960 5961 5962 5963 5964 5965 5966 5967 5967 5968 5968 5968 5968 5968 5968 5968 5968 5968 5968 5967 5967 5966 5966 5966 5966 5966 5967 5968 5969 5969 5970 5970 5970 5970 5970 5970 5970 5970 5970 5969 5969 5969 5969 5969 5969 5968 5967 5967 5966 5965 5965 5964 5963 5962 5962 5961
5919 5921 5924 5926 5928 5930 5932 5934 5936 5937 5938 5940 5941 5942 5943 5944 5946 5947 5949 5949 5950 5951 5951 5952 5954 5955 5957 5958 5959 5960 5961 5962 5963 5964 5965 5966 5966 5967 5967 5968 5968 5968 5968 5968 5968 5968 5968 5968 5968 5967 5967 5967 5966 5967 5967 5967 5968 5968 5969 5970 5970 5970 5970 5970 5970 5970 5970 5970 5969 5969 5969 5969 5969 5968 5967 5967 5967 5967 5966 5965 5964 5963 5962 5962 5961
5916 5918 5921 5923 5925 5928 5930 5932 5934 5936 5938 5939 5940 5941 5942 5943 5944 5946 5947 5948 5949 5950 5951 5952 5953 5955 5956 5957 5958 5959 5961 5962 5962 5963 5964 5965 5966 5966 5967 5967 5968 5968 5968 5968 5968 5968 5968 5968 5968 5967 5967 5967 5967 5967 5967 5967 5967 5968 5969 5969 5969 5970 5970 5970 5970 5969 5969 5969 5969 5969 5969 5968 5968 5968 5967 5967 5967 5967 5966 5965 5964 5963 5963 5961 5960
5913 5915 5918 5920 5922 5924 5927 5930 5933 5935 5937 5938 5939 5939 5940 5941 5943 5944 5945 5947 5948 5949 5951 5952 5953 5954 5955 5957 5958 5959 5960 5961 5962 5962 5963 5964 5965 5966 5966 5967 5967 5967 5968 5968 5968 5968 5968 5968 5968 5967 5967 5967 5967 5967 5967 5967 5967 5968 5968 5969 5969 5969 5969 5969 5969 5969 5969 5969 5969 5968 5968 5968 5968 5968 5967 5967 5967 5967 5966 5965 5964 5963 5962 5961 5960
5911 5913 5915 5917 5919 5922 5925 5928 5931 5933 5935 5936 5937 5938 5939 5940 5941 5942 5944 5945 5947 5948 5949 5951 5952 5953 5954 5955 5956 5958 5958 5959 5960 5961 5962 5963 5964 5965 5965 5966 5966 5967 5967 5967 5967 5967 5967 5967 5967 5967 5967 5967 5966 5966 5966 5967 5967 5968 5968 5968 5968 5969 5969 5969 5969 5969 5968 5968 5968 5968 5968 5967 5967 5967 5967 5966 5967 5967 5966 5965 5963 5963 5962 5961 5960
5910 5911 5913 5914 5917 5919 5922 5925 5928 5930 5932 5933 5935 5936 5937 5939 5940 5941 5942 5943 5945 5946 5948 5949 5950 5952 5953 5954 5955 5956 5957 5958 5959 5960 5961 5962 5963 5963 5964 5964 5965 5965 5966 5966 5966 5967 5967 5966 5966 5966 5966 5966 5966 5966 5966 5966 5967 5967 5968 5968 5968 5968 5968 5968 5968 5968 5968 5967 5967 5967 5967 5967 5966 5966 5966 5966 5966 5966 5965 5964 5963 5962 5961 5961 5959
5908 5910 5911 5912 5914 5917 5919 5921 5924 5926 5928 5930 5932 5933 5935 5937 5938 5939 5940 5941 5943 5944 5946 5947 5948 5950 5951 5952 5953 5954 5955 5956 5957 5959 5960 5960 5961 5962 5963 5963 5964 5964 5964 5965 5965 5965 5966 5966 5966 5966 5966 5966 5965 5965 5965 5965 5966 5966 5967 5967 5967 5967 5967 5967 5967 5967 5967 5967 5966 5966 5966 5965 5965 5965 5965 5965 5965 5965 5964 5963 5962 5961 5960 5960 5959
5907 5908 5909 5910 5912 5914 5916 5918 5920 5922 5924 5926 5928 5930 5932 5934 5936 5937 5938 5939 5940 5942 5943 5945 5946 5947 5949 5950 5951 5952 5954 5955 5956 5957 5958 5959 5959 5960 5961 5962 5962 5963 5963 5963 5964 5964 5964 5964 5964 5964 5964 5964 5964 5964 5964 5964 5965 5965 5966 5966 5966 5966 5966 5967 5967 5966 5966 5965 5965 5965 5964 5964 5964 5964 5964 5964 5964 5964 5963 5962 5961 5960 5959 5958 5958
5905 5906 5907 5908 5909 5911 5912 5914 5917 5919 5920 5923 5925 5927 5929 5931 5933 5934 5936 5937 5938 5939 5941 5942 5944 5945 5946 5948 5950 5951 5952 5953 5954 5955 5956 5957 5958 5958 5959 5960 5960 5961 5962 5962 5962 5963 5963 5963 5963 5963 5963 5963 5963 5963 5963 5963 5963 5964 5964 5965 5965 5965 5965 5965 5966 5965 5965 5964 5964 5963 5963 5963 5963 5963 5963 5963 5963 5962 5962 5961 5960 5959 5958 5956 5956
5902 5903 5904 5905 5906 5907 5909 5911 5913 5916 5918 5920 5922 5924 5926 5928 5930 5932 5933 5935 5936 5937 5938 5939 5941 5943 5944 5946 5947 5949 5950 5951 5952 5952 5954 5955 5955 5956 5957 5958 5958 5959 5960 5960 5961 5961 5961 5962 5962 5962 5962 5962 5962 5961 5961 5962 5962 5962 5963 5963 5963 5963 5963 5964 5964 5964 5964 5963 5962 5962 5962 5962 5962 5961 5961 5961 5961 5961 5960 5959 5959 5958 5956 5955 5954
5899 5901 5902 5903 5904 5905 5907 5909 5911 5913 5916 5918 5919 5921 5923 5925 5927 5929 5930 5931 5933 5934 5935 5937 5939 5940 5942 5943 5945 5946 5948 5949 5949 5950 5951 5952 5953 5954 5955 5956 5956 5957 5958 5959 5959 5959 5960 5960 5960 5961 5961 5961 5960 5960 5960 5960 5960 5960 5961 5961 5961 5962 5962 5962 5962 5962 5962 5962 5961 5961 5961 5960 5960 5959 5958 5959 5959 5959 5958 5958 5957 5956 5954 5953 5952
5896 5898 5899 5900 5902 5904 5907 5909 5911 5912 5914 5915 5917 5919 5920 5922 5924 5926 5927 5929 5930 5931 5933 5934 5936 5937 5939 5941 5943 5944 5945 5946 5947 5948 5949 5950 5951 5952 5952 5953 5954 5955 5956 5957 5957 5958 5958 5959 5959 5959 5959 5959 5959 5959 5958 5958 5958 5958 5958 5959 5959 5960 5960 5960 5960 5960 5960 5960 5959 5959 5959 5959 5958 5956 5956 5956 5956 5956 5956 5956 5955 5954 5953 5952 5951
5893 5895 5896 5899 5902 5905 5907 5909 5911 5912 5913 5914 5915 5916 5918 5920 5922 5924 5925 5926 5927 5928 5930 5931 5933 5934 5936 5938 5940 5942 5943 5943 5944 5945 5946 5947 5948 5949 5950 5951 5952 5952 5953 5954 5955 5956 5956 5957 5957 5957 5957 5957 5957 5957 5957 5956 5956 5956 5956 5956 5957 5957 5957 5957 5957 5958 5958 5958 5957 5956 5956 5956 5955 5954 5954 5954 5953 5953 5953 5953 5953 5952 5951 5950 5950
5890 5893 5896 5899 5902 5903 5904 5906 5908 5910 5912 5913 5914 5915 5917 5919 5920 5921 5922 5923 5925 5926 5927 5928 5930 5931 5933 5935 5936 5938 5940 5941 5942 5943 5944 5945 5946 5947 5947 5948 5949 5950 5951 5951 5952 5953 5954 5955 5955 5955 5955 5955 5955 5955 5955 5955 5955 5954 5954 5954 5954 5954 5954 5954 5954 5955 5955 5955 5955 5954 5954 5954 5953 5951 5951 5951 5951 5950 5950 5950 5950 5950 5950 5949 5948
5890 5892 5894 5897 5899 5900 5900 5901 5904 5906 5909 5911 5912 5914 5915 5916 5917 5918 5920 5921 5923 5924 5924 5925 5926 5928 5929 5931 5933 5935 5937 5938 5939 5940 5941 5942 5943 5944 5945 5945 5946 5947 5948 5949 5950 5950 5951 5952 5953 5953 5953 5954 5953 5953 5953 5953 5953 5953 5952 5952 5952 5952 5952 5951 5951 5951 5952 5952 5952 5951 5951 5951 5950 5949 5949 5949 5948 5948 5948 5948 5948 5948 5948 5947 5947
5887 5890 5892 5894 5896 5897 5898 5899 5901 5903 5906 5909 5911 5913 5913 5914 5915 5915 5917 5918 5919 5920 5921 5922 5923 5924 5926 5927 5929 5931 5933 5934 5935 5937 5938 5939 5940 5941 5942 5943 5944 5944 5945 5946 5947 5947 5948 5949 5950 5950 5951 5951 5951 5951 5951 5951 5950 5950 5950 5950 5950 5949 5949 5948 5948 5948 5948 5949 5949 5948 5948 5948 5947 5946 5946 5946 5946 5945 5945 5946 5946 5946 5946 5945 5945
5885 5887 5889 5891 5893 5894 5896 5897 5899 5901 5903 5906 5909 5910 5911 5912 5912 5912 5913 5915 5916 5917 5918 5919 5920 5921 5922 5923 5925 5928 5929 5930 5932 5933 5934 5935 5936 5938 5939 5940 5941 5942 5943 5943 5944 5944 5945 5946 5946 5947 5948 5948 5948 5948 5949 5949 5949 5948 5948 5947 5947 5947 5946 5945 5944 5944 5944 5945 5945 5945 5945 5944 5944 5944 5944 5944 5944 5944 5944 5944 5944 5944 5943 5943 5942
5883 5884 5886 5887 5889 5891 5892 5894 5896 5898 5900 5903 5905 5907 5908 5908 5909 5910 5911 5911 5912 5913 5914 5915 5916 5917 5919 5920 5922 5923 5925 5926 5928 5929 5930 5931 5933 5935 5936 5937 5938 5939 5940 5940 5941 5941 5941 5942 5943 5944 5944 5945 5945 5945 5946 5946 5946 5946 5945 5945 5945 5944 5943 5942 5941 5941 5940 5941 5941 5941 5941 5941 5941 5941 5941 5942 5942 5942 5942 5943 5942 5942 5941 5940 5940
5879 5880 5881 5882 5884 5886 5889 5891 5893 5895 5898 5900 5901 5903 5904 5905 5906 5908 5909 5909 5909 5910 5911 5912 5914 5915 5916 5917 5918 5919 5921 5922 5924 5925 5926 5928 5929 5931 5932 5934 5935 5936 5937 5938 5938 5938 5938 5938 5939 5940 5941 5941 5941 5942 5943 5943 5943 5943 5942 5943 5942 5940 5939 5938 5938 5937 5937 5937 5937 5937 5937 5937 5938 5938 5939 5940 5941 5941 5941 5941 5941 5940 5939 5937 5937
5873 5875 5876 5876 5879 5882 5885 5888 5891 5892 5894 5896 5898 5899 5900 5901 5903 5905 5906 5907 5907 5907 5908 5910 5911 5913 5914 5915 5915 5916 5918 5919 5920 5921 5923 5924 5926 5927 5928 5930 5931 5933 5933 5934 5934 5934 5934 5934 5935 5936 5937 5937 5938 5939 5940 5940 5940 5940 5940 5940 5939 5936 5935 5935 5935 5934 5934 5933 5933 5933 5933 5934 5935 5936 5937 5938 5939 5939 5939 5939 5938 5937 5935 5934 5933
5868 5869 5871 5873 5875 5879 5882 5885 5888 5889 5891 5892 5893 5895 5896 5897 5899 5901 5902 5903 5903 5904 5905 5906 5908 5909 5911 5912 5913 5914 5915 5915 5916 5917 5919 5920 5922 5923 5924 5926 5927 5928 5929 5930 5931 5931 5931 5931 5931 5931 5932 5933 5934 5935 5936 5936 5937 5937 5937 5936 5934 5933 5932 5933 5932 5931 5930 5930 5930 5930 5930 5931 5932 5933 5935 5936 5936 5936 5936 5936 5935 5933 5931 5930 5930
5865 5867 5868 5870 5873 5876 5878 5881 5884 5886 5887 5888 5889 5891 5893 5894 5895 5896 5898 5899 5900 5901 5901 5903 5904 5906 5907 5909 5910 5912 5912 5913 5913 5914 5915 5917 5918 5920 5921 5923 5923 5923 5924 5926 5927 5927 5927 5926 5926 5927 5927 5929 5930 5931 5932 5932 5933 5933 5933 5932 5931 5930 5930 5930 5929 5928 5927 5927 5926 5927 5927 5928 5929 5930 5932 5933 5933 5933 5933 5932 5930 5929 5928 5927 5927
5861 5864 5866 5869 5872 5873 5875 5877 5879 5881 5883 5884 5886 5888 5889 5890 5892 5893 5894 5895 5897 5897 5898 5899 5901 5902 5904 5906 5907 5909 5909 5910 5911 5911 5912 5913 5914 5916 5917 5919 5919 5919 5920 5922 5923 5923 5923 5922 5922 5923 5923 5924 5925 5926 5927 5928 5929 5929 5929 5928 5927 5927 5927 5926 5925 5925 5924 5924 5924 5924 5924 5925 5927 5928 5929 5930 5930 5930 5928 5927 5926 5925 5925 5924 5922
5856 5859 5863 5866 5869 5871 5872 5873 5875 5877 5879 5880 5882 5884 5885 5887 5888 5889 5890 5892 5893 5894 5895 5896 5897 5899 5901 5902 5904 5905 5906 5907 5908 5908 5909 5910 5911 5912 5913 5914 5914 5914 5916 5917 5918 5919 5919 5919 5919 5919 5919 5920 5920 5922 5923 5924 5925 5925 5924 5923 5923 5924 5923 5923 5921 5921 5921 5921 5922 5922 5923 5924 5924 5925 5925 5925 5925 5925 5924 5923 5922 5922 5921 5920 5918
5852 5856 5859 5862 5865 5868 5869 5870 5872 5873 5875 5877 5878 5880 5882 5884 5885 5886 5887 5888 5890 5891 5892 5893 5894 5896 5897 5899 5901 5902 5903 5903 5904 5905 5906 5907 5907 5908 5909 5910 5910 5910 5911 5913 5914 5914 5914 5915 5915 5915 5915 5916 5916 5918 5919 5920 5920 5920 5920 5919 5920 5920 5919 5918 5918 5918 5918 5919 5919 5920 5921 5921 5921 5921 5921 5920 5920 5920 5919 5919 5919 5919 5917 5915 5912
5849 5851 5854 5857 5860 5862 5865 5867 5868 5870 5871 5872 5874 5876 5878 5879 5881 5882 5883 5884 5886 5888 5888 5889 5891 5893 5895 5896 5898 5898 5898 5899 5900 5901 5902 5902 5903 5905 5905 5906 5906 5906 5907 5909 5909 5910 5911 5911 5911 5911 5911 5911 5912 5914 5915 5915 5916 5916 5915 5915 5915 5915 5915 5914 5914 5915 5916 5916 5917 5918 5918 5918 5919 5918 5917 5916 5916 5916 5916 5916 5915 5914 5912 5910 5907
5845 5847 5850 5852 5855 5857 5859 5862 5864 5866 5867 5869 5871 5872 5874 5875 5877 5878 5879 5881 5883 5884 5885 5886 5888 5890 5892 5893 5894 5894 5894 5895 5896 5897 5898 5898 5899 5900 5901 5902 5902 5903 5903 5905 5906 5906 5906 5906 5906 5907 5907 5908 5909 5910 5910 5910 5911 5911 5910 5910 5910 5910 5910 5910 5911 5912 5913 5914 5914 5914 5915 5915 5916 5915 5915 5914 5914 5914 5913 5912 5912 5910 5908 5906 5904
5841 5843 5846 5848 5850 5852 5855 5857 5859 5861 5863 5865 5867 5868 5870 5871 5872 5874 5876 5878 5879 5880 5881 5883 5885 5887 5888 5889 5889 5889 5890 5891 5893 5893 5893 5894 5895 5895 5895 5896 5897 5898 5899 5900 5901 5901 5901 5902 5903 5904 5904 5905 5905 5905 5906 5906 5905 5905 5905 5904 5904 5905 5905 5907 5908 5909 5910 5910 5910 5910 5911 5912 5912 5911 5911 5911 5911 5910 5910 5909 5908 5907 5905 5903 5901
5836 5839 5841 5843 5846 5848 5850 5852 5854 5856 5858 5860 5862 5864 5865 5866 5868 5870 5871 5873 5874 5876 5878 5879 5881 5882 5883 5883 5884 5885 5887 5889 5889 5888 5888 5888 5889 5889 5890 5891 5892 5893 5895 5895 5895 5896 5898 5898 5899 5900 5900 5901 5901 5901 5901 5901 5900 5900 5899 5898 5898 5899 5901 5903 5905 5905 5905 5906 5906 5906 5906 5907 5907 5907 5907 5907 5907 5906 5906 5905 5904 5903 5901 5900 5898
5830 5833 5835 5838 5840 5843 5846 5847 5849 5851 5853 5855 5857 5859 5861 5862 5864 5865 5867 5868 5870 5872 5874 5875 5876 5876 5877 5879 5880 5882 5884 5885 5884 5883 5883 5883 5883 5884 5885 5886 5887 5888 5889 5890 5891 5893 5894 5895 5895 5896 5896 5897 5897 5897 5897 5896 5895 5894 5892 5891 5891 5893 5895 5897 5899 5900 5901 5902 5902 5902 5903 5904 5904 5903 5903 5903 5903 5902 5901 5900 5900 5899 5897 5896 5894
5824 5827 5829 5832 5835 5837 5840 5842 5844 5846 5848 5849 5851 5853 5855 5857 5859 5860 5862 5864 5865 5867 5869 5871 5871 5871 5873 5875 5876 5878 5879 5880 5879 5879 5879 5879 5879 5880 5881 5882 5883 5883 5884 5885 5887 5889 5890 5891 5892 5892 5892 5893 5893 5892 5891 5890 5889 5888 5886 5885 5885 5886 5889 5893 5897 5898 5899 5898 5898 5900 5901 5902 5901 5900 5900 5899 5898 5897 5896 5896 5895 5894 5893 5891 5890
5818 5821 5823 5826 5828 5831 5833 5836 5838 5839 5841 5842 5844 5847 5849 5851 5853 5856 5858 5859 5861 5862 5864 5865 5866 5867 5868 5870 5871 5873 5875 5876 5876 5876 5876 5875 5875 5876 5877 5877 5878 5878 5879 5881 5884 5885 5886 5887 5888 5888 5889 5889 5888 5887 5885 5884 5883 5881 5880 5878 5878 5881 5887 5893 5896 5896 5894 5893 5894 5896 5898 5898 5896 5896 5895 5894 5893 5892 5891 5891 5890 5889 5887 5886 5885
5813 5815 5818 5820 5823 5826 5828 5829 5831 5833 5834 5836 5839 5843 5845 5847 5850 5853 5855 5856 5857 5858 5859 5860 5861 5863 5865 5866 5867 5869 5870 5871 5871 5871 5871 5871 5871 5872 5872 5872 5872 5874 5876 5878 5880 5882 5883 5884 5884 5884 5884 5883 5882 5880 5879 5877 5875 5873 5873 5873 5874 5879 5885 5890 5890 5889 5888 5888 5889 5891 5892 5891 5889 5889 5889 5889 5888 5887 5886 5886 5885 5883 5882 5881 5879
5807 5810 5812 5815 5817 5820 5822 5824 5825 5828 5830 5833 5836 5839 5842 5844 5846 5848 5850 5852 5853 5855 5856 5856 5857 5859 5860 5861 5862 5864 5865 5866 5866 5867 5867 5867 5867 5867 5867 5867 5869 5871 5873 5875 5876 5878 5879 5879 5879 5879 5878 5877 5876 5874 5872 5870 5868 5869 5874 5877 5876 5876 5880 5884 5884 5882 5882 5882 5883 5885 5886 5884 5881 5881 5882 5882 5882 5882 5882 5881 5879 5878 5877 5875 5874
5801 5804 5806 5809 5811 5813 5816 5817 5819 5821 5823 5826 5829 5833 5836 5839 5840 5842 5844 5847 5848 5849 5850 5851 5852 5853 5854 5855 5857 5858 5859 5860 5861 5862 5863 5863 5863 5862 5862 5864 5866 5867 5869 5871 5872 5873 5874 5875 5875 5875 5873 5871 5870 5867 5865 5865 5868 5871 5875 5877 5874 5871 5873 5878 5878 5877 5876 5877 5877 5878 5879 5878 5877 5876 5877 5877 5877 5877 5876 5875 5874 5873 5871 5870 5869
5795 5798 5800 5802 5804 5806 5808 5809 5811 5813 5816 5819 5822 5826 5830 5833 5835 5837 5840 5841 5841 5842 5844 5846 5847 5847 5848 5849 5851 5852 5853 5854 5855 5856 5858 5858 5858 5858 5859 5861 5862 5863 5865 5866 5867 5867 5868 5870 5871 5870 5866 5863 5862 5862 5864 5868 5871 5870 5870 5871 5870 5868 5869 5871 5873 5873 5873 5873 5873 5872 5872 5872 5872 5872 5872 5872 5872 5871 5870 5869 5868 5867 5866 5865 5864
5789 5791 5794 5796 5797 5799 5801 5802 5803 5806 5809 5814 5818 5822 5825 5827 5829 5832 5834 5835 5836 5837 5838 5839 5839 5840 5842 5844 5846 5847 5848 5848 5849 5851 5852 5853 5854 5855 5855 5857 5857 5858 5859 5860 5860 5861 5865 5867 5867 5864 5860 5858 5860 5864 5866 5867 5866 5863 5862 5864 5865 5866 5866 5866 5867 5868 5869 5869 5869 5869 5868 5867 5867 5867 5867 5867 5866 5866 5865 5864 5863 5863 5861 5860 5859
5783 5785 5787 5789 5791 5792 5792 5792 5795 5799 5803 5807 5813 5819 5822 5823 5824 5825 5827 5828 5830 5831 5832 5832 5833 5835 5837 5839 5840 5840 5841 5841 5843 5845 5847 5848 5850 5851 5852 5853 5853 5852 5853 5856 5858 5861 5865 5867 5864 5860 5856 5857 5862 5865 5863 5860 5858 5857 5856 5857 5859 5862 5863 5864 5864 5864 5865 5866 5865 5864 5863 5862 5861 5861 5861 5861 5861 5860 5860 5859 5858 5858 5856 5855 5854
5776 5779 5781 5783 5783 5783 5784 5786 5790 5794 5797 5799 5803 5809 5814 5816 5819 5821 5822 5822 5824 5825 5826 5827 5829 5830 5831 5833 5834 5834 5834 5835 5837 5840 5841 5843 5845 5846 5847 5848 5848 5846 5847 5852 5857 5859 5861 5862 5861 5858 5855 5854 5857 5859 5857 5855 5855 5855 5854 5854 5855 5857 5858 5860 5862 5862 5862 5861 5860 5858 5856 5856 5856 5856 5856 5856 5855 5854 5854 5853 5852 5851 5851 5849 5848
5769 5772 5775 5776 5775 5776 5779 5784 5787 5789 5791 5794 5798 5801 5803 5806 5811 5814 5816 5816 5817 5818 5820 5822 5824 5825 5826 5827 5828 5828 5828 5830 5831 5834 5836 5838 5840 5841 5842 5843 5843 5841 5843 5847 5851 5852 5854 5856 5855 5854 5853 5851 5851 5852 5851 5851 5852 5852 5852 5852 5853 5852 5853 5854 5856 5856 5856 5856 5854 5851 5850 5850 5850 5850 5850 5849 5849 5847 5846 5846 5845 5844 5843 5842 5841
5763 5765 5768 5770 5769 5770 5773 5778 5781 5783 5786 5790 5794 5796 5797 5798 5801 5803 5805 5807 5809 5811 5812 5815 5817 5818 5819 5820 5820 5821 5823 5825 5826 5828 5830 5832 5835 5836 5837 5838 5839 5839 5839 5841 5843 5845 5848 5850 5850 5849 5849 5848 5848 5848 5848 5848 5848 5848 5848 5849 5849 5849 5848 5847 5847 5847 5848 5848 5847 5845 5843 5842 5842 5842 5842 5842 5841 5840 5839 5838 5838 5837 5836 5835 5833
5756 5759 5762 5763 5764 5764 5766 5770 5774 5777 5779 5782 5785 5788 5790 5791 5793 5794 5796 5799 5802 5804 5805 5807 5810 5812 5813 5812 5812 5814 5817 5819 5820 5821 5824 5827 5830 5832 5833 5834 5835 5836 5836 5836 5837 5837 5839 5842 5843 5844 5844 5844 5844 5844 5844 5844 5844 5844 5844 5843 5843 5842 5842 5841 5840 5840 5840 5840 5839 5838 5836 5835 5835 5834 5834 5833 5833 5832 5831 5831 5830 5829 5828 5827 5826
5750 5753 5755 5757 5757 5758 5760 5764 5766 5769 5772 5775 5778 5781 5783 5784 5786 5788 5791 5794 5796 5798 5800 5802 5804 5806 5806 5805 5805 5808 5811 5813 5815 5817 5819 5822 5824 5827 5828 5830 5831 5832 5833 5833 5833 5833 5833 5835 5836 5837 5838 5838 5838 5838 5838 5838 5838 5838 5838 5837 5837 5836 5835 5834 5833 5833 5832 5832 5832 5831 5830 5829 5828 5827 5826 5826 5825 5824 5824 5823 5822 5821 5820 5819 5817
5744 5746 5748 5750 5751 5752 5755 5758 5760 5763 5765 5768 5772 5774 5776 5777 5779 5783 5786 5788 5790 5793 5795 5796 5797 5799 5800 5799 5800 5803 5806 5808 5811 5813 5814 5816 5819 5821 5823 5825 5826 5827 5828 5828 5828 5829 5829 5830 5830 5831 5832 5832 5832 5832 5832 5832 5832 5831 5831 5831 5830 5830 5828 5826 5825 5825 5825 5824 5824 5824 5823 5823 5822 5821 5820 5819 5818 5817 5817 5816 5815 5813 5812 5810 5809
5738 5740 5741 5743 5745 5747 5750 5752 5755 5757 5759 5762 5765 5768 5769 5770 5773 5777 5781 5782 5783 5785 5786 5787 5789 5791 5792 5792 5794 5798 5801 5803 5805 5807 5808 5809 5812 5814 5816 5818 5819 5820 5822 5823 5823 5824 5824 5825 5825 5826 5826 5826 5826 5826 5826 5826 5826 5825 5824 5824 5824 5823 5821 5820 5819 5818 5818 5817 5817 5817 5816 5816 5815 5814 5813 5812 5811 5810 5809 5808 5807 5805 5803 5802 5800
5732 5735 5736 5737 5739 5742 5745 5747 5749 5750 5752 5755 5758 5762 5763 5764 5768 5772 5775 5776 5776 5777 5778 5779 5782 5784 5785 5785 5789 5792 5794 5795 5797 5799 5801 5803 5805 5807 5808 5810 5812 5814 5815 5816 5817 5818 5819 5819 5820 5820 5820 5820 5820 5820 5820 5820 5820 5819 5818 5818 5816 5815 5814 5813 5813 5812 5812 5811 5810 5810 5809 5809 5808 5806 5806 5805 5804 5802 5801 5799 5798 5796 5795 5793 5792
5726 5729 5730 5730 5732 5735 5738 5741 5742 5744 5746 5748 5752 5756 5758 5759 5762 5764 5766 5767 5769 5769 5770 5772 5774 5775 5776 5779 5782 5785 5787 5789 5792 5795 5797 5798 5799 5801 5802 5803 5805 5807 5808 5809 5810 5812 5812 5813 5814 5814 5814 5814 5814 5813 5813 5813 5813 5813 5812 5812 5810 5808 5807 5807 5806 5806 5805 5804 5803 5802 5802 5801 5800 5798 5797 5796 5795 5794 5793 5791 5790 5788 5786 5785 5783
5721 5723 5724 5724 5725 5727 5731 5734 5736 5738 5740 5743 5746 5750 5752 5754 5755 5755 5756 5758 5760 5761 5763 5766 5768 5770 5770 5771 5775 5779 5783 5786 5789 5791 5792 5792 5793 5794 5795 5797 5798 5800 5802 5803 5804 5805 5806 5806 5807 5807 5807 5807 5807 5807 5807 5807 5806 5806 5806 5805 5804 5803 5802 5801 5800 5799 5798 5797 5796 5795 5794 5793 5792 5791 5790 5788 5787 5786 5784 5783 5781 5779 5778 5776 5773
5716 5717 5718 5718 5720 5722 5725 5727 5729 5731 5734 5738 5741 5743 5746 5748 5749 5750 5751 5752 5754 5755 5757 5760 5763 5765 5766 5767 5770 5774 5778 5780 5783 5785 5786 5786 5787 5787 5789 5790 5792 5794 5795 5797 5797 5798 5799 5799 5800 5800 5800 5801 5800 5800 5800 5800 5799 5799 5799 5798 5797 5796 5795 5794 5793 5792 5791 5790 5789 5788 5787 5785 5784 5783 5782 5780 5779 5777 5775 5773 5772 5770 5768 5766 5764
5710 5711 5710 5712 5715 5718 5722 5725 5725 5725 5727 5731 5735 5737 5739 5741 5742 5745 5746 5747 5748 5750 5751 5752 5754 5756 5758 5760 5764 5768 5771 5774 5776 5778 5779 5779 5779 5780 5782 5784 5786 5787 5789 5790 5790 5790 5791 5792 5793 5793 5794 5794 5794 5793 5793 5792 5791 5791 5790 5790 5789 5788 5787 5787 5786 5785 5784 5782 5781 5780 5779 5777 5776 5774 5773 5771 5770 5768 5766 5764 5763 5761 5758 5756 5754
5703 5704 5705 5707 5710 5714 5719 5722 5722 5720 5721 5724 5727 5730 5732 5734 5736 5738 5741 5742 5744 5745 5746 5747 5748 5749 5751 5753 5757 5761 5765 5767 5769 5769 5770 5771 5772 5774 5775 5778 5779 5781 5782 5782 5783 5783 5784 5785 5786 5786 5786 5786 5786 5785 5784 5783 5783 5782 5782 5781 5781 5780 5779 5779 5778 5777 5775 5774 5773 5771 5770 5769 5767 5765 5764 5762 5761 5759 5757 5755 5753 5751 5749 5746 5744